Regional Weather Roundup
Issued by NWS

Home | Current Version | Previous Version | Graphics & Text | Print | Product List | Glossary Off
Versions: 1 2 3 4 5 6 7 8 9 10 11 12 13 14 15 16 17 18 19 20 21 22 23 24 25 26 27 28 29 30 31 32 33 34 35 36 37 38 39 40 41 42 43 44 45 46 47 48 49 50

416
ASUS45 KBOU 250707
RWRCO

WEATHER ROUNDUP FOR COLORADO
NATIONAL WEATHER SERVICE DENVER/BOULDER CO
100 AM MDT TUE JUL 25 2017

NOTE: "FAIR" INDICATES FEW OR NO CLOUDS BELOW 12000 FEET WITH NO
SIGNIFICANT WEATHER AND/OR OBSTRUCTIONS TO VISIBILITY.

COZ001>005-013-030-031-250800-
...NORTHWEST COLORADO...

CITY           SKY/WX    TMP DP  RH WIND       PRES   REMARKS
CRAIG          MOCLDY    64  53  67 CALM      30.16R
HAYDEN         MOCLDY   N/A N/A N/A E6        30.18S
MEEKER         CLOUDY    72  50  45 SW14G20   30.24R
RABBIT EARS PA CLOUDY    59  39  47 S10G20    30.52S
STEAMBOAT SPGS FAIR      64  45  50 NW5       30.21S
WALDEN         FAIR      59  43  55 SE3       30.33R
$$

COZ006>008-011-250800-
...WEST CENTRAL VALLEYS...

CITY           SKY/WX    TMP DP  RH WIND       PRES   REMARKS
GRAND JUNCTION CLOUDY    70  60  70 SW5       30.17R
MONTROSE       FAIR      67  56  67 W8        30.24R
EAGLE          FAIR      69  50  50 SW12      30.27R
RIFLE          MOCLDY    66  61  84 W8        30.22R
DELTA          CLOUDY    70  58  65 E5        30.20R
NUCLA          CLOUDY    63  59  88 NE3       30.28F
$$

COZ017>023-064>068-250800-
...SOUTHWEST COLORADO...

CITY           SKY/WX    TMP DP  RH WIND       PRES   REMARKS
DURANGO        CLOUDY    61  57  87 CALM      30.28S
CORTEZ         CLOUDY    64  61  90 VRB3      30.20F
PAGOSA SPRINGS RAIN      59  56  91 CALM      30.36F
TELLURIDE      LGT RAIN  55  53  92 CALM      30.46F
WOLF CREEK PAS DRIZZLE   45  43  93 SW8       30.70S
$$

COZ009-010-012-014-032>034-037-058>063-250800-
...CENTRAL COLORADO...

CITY           SKY/WX    TMP DP  RH WIND       PRES   REMARKS
ASPEN          MOCLDY    62  50  64 N3        30.33R
BUENA VISTA    FAIR      61  47  59 CALM      30.33S
COPPER MTN     FAIR      55  37  50 S10       30.65F
BERTHOUD PASS  FAIR      48  34  57 SW6G17    30.68S
COTTONWOOD PAS FAIR      63  41  45 CALM      30.48S
GUNNISON       FAIR      62  49  62 N6        30.35S
KREMMLING      FAIR      75  43  31 SW6       30.29R
LEADVILLE      MOCLDY    53  42  66 NE5       30.44F
SALIDA         FAIR      67  49  51 W6        30.37S
SUNLIGHT       CLOUDY    50  43  76 W7        30.58F
WILKERSON PASS MOCLDY    52  39  62 SW8       30.61S
$$

COZ069>075-250800-
...SAN LUIS VALLEY/SANGRE DE CRISTO MOUNTAINS...

CITY           SKY/WX    TMP DP  RH WIND       PRES   REMARKS
ALAMOSA        CLOUDY    61  53  75 S6        30.33R
DEL NORTE      FAIR      64  47  53 W17G25    30.36R
LA VETA PASS   NOT AVBL
SAGUACHE         N/A    N/A N/A N/A MISG        N/A
$$

COZ035-036-038>040-250800-
...NORTHERN COLORADO FRONT RANGE...

CITY           SKY/WX    TMP DP  RH WIND       PRES   REMARKS
DENVER INTL AP MOCLDY    74  47  38 S16       30.07R
DMNS CITY PARK   N/A     72  47  39 SE9       30.07R
AURORA         MOCLDY    74  50  42 S15       30.10S
FRONT RANGE AP FAIR      75  50  41 S12       30.09S
ERIE MUNI ARPT FAIR      72  46  39 S3        30.04S
BOULDER MUN AP FAIR      77  43  29 S5        30.05R
CENTENNIAL     FAIR      72  44  36 S13       30.11S
BROOMFIELD     FAIR      72  48  43 CALM      30.09S
FORT COLLINS   FAIR      70  51  51 NE6       30.04R
LONGMONT       FAIR      70  51  52 S3        30.05R
$$

COZ041-046-047-076>085-087-088-250800-
...PIKES PEAK/PALMER DIVIDE AND SOUTHERN FOOTHILLS...

CITY           SKY/WX    TMP DP  RH WIND       PRES   REMARKS
COLO. SPRINGS  MOCLDY    69  56  62 NE5       30.18S
A. F. ACADEMY  FAIR      60  47  61 N6        30.20R
SCHRIEVER AFB  CLOUDY    67  53  60 N5        30.18S
CHEYENNE MTN   CLOUDY    72  42  34 NW7       30.18R
ELLICOTT       NOT AVBL
FALCON           N/A     65  51  61 NE5       30.24S
FORT CARSON    CLOUDY    68  52  55 N10       30.13S
LIMON          FAIR      64  59  83 SE5       30.12F
MONUMENT HILL  FAIR      59  52  77 S7        30.25S
CANON CITY     CLEAR     73  54  49 W10       30.10S
WALSENBURG     FAIR      72  50  46 W17G23    30.15F
TRINIDAD       FAIR      74  50  42 W13       30.15S
$$

COZ042>045-048>051-090-091-250800-
...NORTHEAST COLORADO...

CITY           SKY/WX    TMP DP  RH WIND       PRES   REMARKS
GREELEY ARPT   FAIR      69  53  56 SE5       30.03R
AKRON          FAIR      75  59  57 S15       30.06S
BURLINGTON     FAIR      72  62  71 S12       30.08S
WRAY           NOT AVBL
YUMA           FAIR      73  54  49 S13       30.03F
STERLING       FAIR      77  61  57 S12       29.99F
HOLYOKE        FAIR      79  61  53 S15       30.00S
FORT MORGAN    FAIR      74  53  47 S9G17     30.04S
$$

COZ086-089-092>099-250800-
...SOUTHEAST COLORADO...

CITY           SKY/WX    TMP DP  RH WIND       PRES   REMARKS
PUEBLO         FAIR      75  50  41 CALM      30.04R
LA JUNTA       FAIR      79  59  50 SW3       30.03R
LAMAR          FAIR      77  61  57 S18G26    30.01S
SPRINGFIELD      N/A     70  62  76 S15       30.11R
$$




USA.gov is the U.S. government's official web portal to all federal, state and local government web resources and services.